Location: Port Chicago (historical)
(38.0460°N, 122.0208°W)
Time: 19:25:37
(UTC+00:00)

Daily predictions for brighter satellites

Satellite Brightness Start Highest point End
(mag) Time Altitude Azimuth Time Altitude Azimuth Time Altitude Azimuth
SL-16 R/B 4.1 12:17:32 18° N 12:17:32 18° N 12:19:10 10° N
DELTA 2 R/B (1) 4.4 12:14:50 45° SE 12:14:50 45° SE 12:19:21 10° E
Cosmos 407 Rocket 4.1 12:20:52 53° SE 12:21:19 55° ESE 12:26:29 10° NNE
H-2A R/B 3.8 12:21:40 10° NNE 12:25:55 42° E 12:26:52 37° SE
Cosmos 2369 Rocket 3.0 12:22:26 15° N 12:26:58 50° ENE 12:32:29 10° SE
Cosmos 1603 3.6 12:30:28 86° SE 12:30:30 86° ESE 12:36:13 10° NNE
Cosmos 1943 3.3 12:31:45 52° S 12:32:59 69° ESE 12:38:36 10° NNE
Cosmos 614 Rocket 4.0 12:34:05 77° NE 12:34:05 77° NE 12:38:57 10° NNE
Cosmos 1484 Rocket 4.3 12:33:33 10° NNE 12:37:14 36° E 12:40:14 14° SSE
Cosmos 1500 Rocket 4.2 12:34:46 10° N 12:39:06 54° E 12:43:22 10° SSE
Aureole 2 Rocket 4.3 12:44:58 27° ESE 12:44:58 27° ESE 12:46:56 10° SE
Cosmos 1190 Rocket 4.0 12:45:55 44° S 12:47:40 83° ESE 12:52:59 10° NNE
ALOS 3.8 12:44:31 10° NNE 12:48:49 36° E 12:53:06 10° SSE
GEOS 3 Rocket 3.7 12:44:42 10° NE 12:50:03 76° ESE 12:52:19 36° SSW
STARLINK-1144 4.4 12:51:51 43° N 12:51:51 43° N 12:54:58 10° NE
Lacrosse 5 1.7 12:50:14 66° NW 12:50:58 89° NE 12:56:02 10° SE
Cosmos 1743 Rocket 3.4 12:50:55 46° N 12:52:12 85° E 12:56:32 10° S
STARLINK-1128 4.4 12:53:25 42° N 12:53:25 42° N 12:56:30 10° NE
Cosmos 1605 Rocket 4.0 12:48:40 10° NNW 12:54:39 53° W 13:00:32 10° SSW
STARLINK-1103 4.3 12:56:38 44° N 12:56:38 44° N 12:59:55 10° NE
STARLINK-1113 4.3 12:57:59 42° N 12:57:59 42° N 13:01:13 10° NE
STARLINK-1101 4.2 13:01:25 43° N 13:01:25 43° N 13:04:52 10° NE
Okean O Rocket 4.3 12:58:46 10° NE 13:01:57 20° E 13:05:07 10° SE
STARLINK-1119 4.3 13:02:36 41° NNW 13:02:36 41° NNW 13:06:01 10° NE
BREEZE-M DEB (TANK) 3.7 12:58:25 24° SW 13:02:58 68° SE 13:06:09 10° ENE
Cosmos 921 Rocket 3.5 12:59:48 10° N 13:04:10 61° ENE 13:08:25 10° SSE
Cosmos 676 Rocket 4.2 13:00:27 10° S 13:05:43 71° ESE 13:11:03 10° NNE
STARLINK-1102 4.2 13:06:12 41° NNW 13:06:12 41° NNW 13:09:50 10° NE
Meteor 1-31 Rocket 3.8 13:02:30 10° N 13:04:44 32° NNW 13:04:44 32° NNW
STARLINK-1114 4.3 13:07:11 40° NNW 13:07:11 40° NNW 13:10:46 10° NE
Meteor 2-3 Rocket 3.8 13:01:41 10° NNW 13:07:20 57° W 13:12:59 10° S
Cosmos 1633 3.3 13:05:40 10° N 13:09:14 52° E 13:12:46 10° SSE
CZ-2C R/B 3.2 13:05:35 10° N 13:09:32 34° NW 13:09:32 34° NW
STARLINK-1111 4.3 13:10:58 39° NNW 13:10:58 39° NNW 13:14:45 10° NE
STARLINK-1130 (DARKSAT) 4.3 13:11:48 37° NNW 13:11:48 37° NNW 13:15:33 10° NE
Cosmos 1153 Rocket 4.4 13:06:44 10° NNW 13:12:45 60° W 13:18:44 10° S
Atlas Centaur 2 4.2 13:06:50 15° SW 13:12:45 34° SSE 13:20:11 10° E
Cosmos 2221 3.5 13:14:56 30° NW 13:14:56 30° NW 13:17:33 10° N
STARLINK-1073 4.3 13:15:46 36° NW 13:15:53 36° NNW 13:19:44 10° NE
STARLINK-1084 4.4 13:16:27 35° NW 13:16:32 35° NNW 13:20:20 10° NNE
Cosmos 1727 Rocket 4.2 13:15:20 14° SW 13:20:23 43° WNW 13:26:14 10° N
STARLINK-1121 4.4 13:20:33 33° NW 13:20:52 33° NNW 13:24:40 10° NNE
COSMO-SKYMED 1 2.7 13:17:30 10° SSE 13:21:50 74° ENE 13:26:10 10° N
Meteor PRIRODA 3.5 13:19:37 10° N 13:23:16 61° WNW 13:25:41 19° SSW
USA 267 3.7 13:18:09 10° SSE 13:24:09 39° SW 13:27:21 25° WNW
CZ-4B R/B 3.3 13:24:05 10° N 13:26:56 34° NW 13:26:56 34° NW
Cosmos 2173 Rocket 3.9 13:21:48 10° N 13:28:04 80° W 13:34:13 10° S
Cosmos 1869 3.7 13:28:41 34° WSW 13:29:28 38° W 13:33:12 10° N
NOSS 3-3 (A) 3.9 13:25:02 10° SSW 13:30:46 81° ESE 13:37:09 10° NE
NOSS 3-3 (C) 4.0 13:25:07 10° SSW 13:30:52 80° ESE 13:37:16 10° NE
Cosmos 1400 Rocket 3.1 13:26:57 10° S 13:30:56 68° E 13:34:59 10° NNE
Cosmos 1943 Rocket 2.7 13:30:36 22° WNW 13:33:11 33° WSW 13:38:03 10° SSW
GPS 2-05 Rocket1 3.7 13:39:34 20° SSW 13:40:18 23° SSE 13:42:15 10° ESE
Cosmos 482 Debris 4.1 13:41:50 23° N 13:42:18 26° NE 13:43:57 10° E
Cosmos 2100 Rocket 4.1 13:41:25 10° NNW 13:47:22 51° W 13:53:15 10° SSW
Shenzhou-11 Module 3.1 13:48:23 21° NW 13:49:20 26° N 13:51:39 10° ENE
ADEOS Rocket 3.8 13:44:07 10° SSE 13:50:11 60° ENE 13:57:01 10° N
Cosmos 1459 Rocket 4.2 13:48:03 10° NNW 13:54:00 49° W 14:00:00 10° SSW
FENGYUN 3A 3.8 13:50:57 10° N 13:56:11 50° WNW 14:01:24 10° SW
Cosmos 1140 Rocket 4.4 13:53:41 10° WSW 13:58:00 27° WNW 14:02:27 10° N
ATLAS 2AS CENTAUR R/B 4.4 13:53:36 10° NNW 14:00:13 31° NE 14:06:21 10° ESE
DELTA 2 R/B (1) 3.6 13:55:37 15° W 14:00:19 83° N 14:05:54 10° E
H-2A R/B 4.1 13:58:06 10° NNW 14:01:02 18° WNW 14:03:27 12° WSW
Cosmos 1340 3.5 14:01:58 10° N 14:05:40 54° E 14:09:19 10° SSE
Sich 1 3.2 14:02:07 10° NNW 14:06:15 46° W 14:10:23 10° SSW
Cosmos 2123 Rocket 4.1 14:02:52 10° SSW 14:09:02 56° W 14:15:14 10° N
Cosmos 2061 Rocket 4.1 14:03:08 10° NNW 14:09:11 53° W 14:15:10 10° SSW
Cosmos 1850 Rocket 4.0 14:04:17 10° SSW 14:09:35 80° WNW 14:14:54 10° NNE
Cosmos 1805 Rocket 4.3 14:05:55 10° NNW 14:09:42 30° W 14:13:28 10° SSW
SKYMED 2 4.4 14:06:11 10° SSW 14:09:59 30° W 14:13:49 10° NW
Cosmos 1725 Rocket 4.0 14:03:53 10° NNW 14:10:07 69° W 14:16:22 10° S
Cosmos 2369 Rocket 3.4 14:06:24 10° NW 14:10:33 21° W 14:14:40 10° SSW
Cosmos 1656 Rocket 4.0 14:05:41 10° NW 14:11:06 47° WSW 14:16:31 10° S
Cosmos 1484 Rocket 4.5 14:08:56 10° NNW 14:11:19 16° WNW 14:13:44 10° WSW
Cosmos 1238 Rocket 3.9 14:06:56 10° NNW 14:12:14 41° W 14:16:43 10° SSW
Cosmos 1862 3.8 14:10:43 10° NNW 14:14:24 38° W 14:18:05 10° SSW
ISS -3.7 14:11:06 10° SW 14:14:27 84° SE 14:17:51 10° NE
Cosmos 1151 Rocket 3.1 14:21:25 10° SSW 14:25:37 54° W 14:29:54 10° N
ALOS 3.5 14:22:30 10° NNW 14:25:58 21° WNW 14:29:26 10° WSW
